Погода в Малой Зоркальцевой

Россия / Тюменская область     58°24′56″N   68°23′53″E
темп.,
°C
ветер,
м/с
пор.,
м/с
влажн.,
%
обл.,
%
осадки,
мм/ч
давл.,
гПа
погр.,
м
22 октября, пт
пт2223:000сз4998100 2.7 1002443
02:000зсз388941 0.4 1002342
05:00−3зюз38906 0.4 1002214
08:00−2ююз31083100 0.0 1002284
11:00+1ююз61071100 0.0 1002698
14:00+2ююз61086100 0.0 1002829
17:00+1ююз61195100 0.3 1002781
20:00+2ююз61291100 0.0 1001639
23 октября, сб
сб2323:00+3ю61395100 0.1 1000544
02:00+4ююз71595100 1.3 997706
05:00+5ююз61497100 2.2 996617
08:00+6юз71595100 2.6 996816
11:00+8зюз71488100 3.1 997978
14:00+9зюз71380100 0.1 999930
17:00+8зюз71479100 0.1 10011029
20:00+6зюз6138214 0.2 1003834
24 октября, вс
вс2423:00+5зюз613785 0.2 1005693
02:00+4зюз513845 0.0 1007623
05:00+4зюз51186100 0.0 1008550
08:00+4зюз5108184 0.0 1010768
11:00+6зюз487994 0.0 1011579
14:00+7ююз477798 0.0 1011669
17:00+6ю4986100 0.0 1009388
20:00+6юв4993100 2.6 1006631
25 октября, пн
пн2523:00+7ююз51396100 3.9 1003771
02:00+7зюз81385100 0.6 1003994
05:00+4з51193100 0.8 1006838
08:00+4зюз51086100 0.1 1008753
11:00+5зюз51074100 0.1 1010932
14:00+5з4771100 0.0 10111161
17:00+4юз2578100 0.1 1012174
20:00+4ююз3674100 0.0 1013238
26 октября, вт
вт2623:00+3ю3776100 0.0 1011258
02:00+3ю3679100 0.0 1010294
05:00+2ю268684 0.0 1008152
08:000ююз2588100 0.0 1005113
11:00+3зюз4675100 0.0 1004574
14:00+1сз61095100 0.5 1003632
17:00−1сз71392100 1.5 1006975
20:00−2сз71390100 0.6 10091009